Location: Bidwell Hollow
(37.7387°N, 90.1707°W)
Time: 01:54:24
(UTC+00:00)

Vanguard 3 - Pass Details

Date: 15 May 2026
Orbit: 507 x 3204 km, 33.3° (Epoch: 6 June)

Event Time Altitude Azimuth Distance (km) Brightness Sun altitude
Rises 22:58:20 0° 274° (W) 7,137 13.4 22.9°
Reaches altitude 10° 23:03:11 10° 272° (W) 6,123 13.7 22.0°
Maximum altitude 23:22:15 70° 195° (SSW) 2,788 10.2 18.2°
Drops below altitude 10° 23:34:59 10° 114° (ESE) 4,291 10.3 15.8°
Sets 23:37:45 0° 112° (ESE) 4,984 10.5 15.2°
